When you browse on this site, cookies collect data to enhance your experience and personalize the content and advertising you see.
Visit our Privacy Policy to learn more. By continuing to use the site, you agree to this use of cookies and data.
  • In France
  • List of Countries
  • For 7 days
  • Water Temperature
  • Weather Map
  • Weather Widgets
  • user-avatar
    Login

    Hourly Weather Elbasan

    Today, 7 June, Sunday

    Time Temperature Precipitation Wind Pressure Humidity
    00:00 +15°C° 0 mm 0 mps 730 mmHg 92%
    01:00 +14°C° 0 mm 0 mps 730 mmHg 92%
    02:00 +15°C° 0 mm 1 mps 730 mmHg 91%
    03:00 +15°C° 0 mm 1 mps 730 mmHg 91%
    04:00 +15°C° 0 mm 1 mps 730 mmHg 91%
    05:00 +16°C° 0 mm 1 mps 731 mmHg 86%
    06:00 +19°C° 0 mm 1 mps 731 mmHg 81%
    07:00 +20°C° 0 mm 1 mps 731 mmHg 76%
    08:00 +22°C° 0 mm 1 mps 731 mmHg 70%
    09:00 +23°C° 0 mm 1 mps 731 mmHg 64%
    10:00 +25°C° 0 mm 1 mps 732 mmHg 59%
    11:00 +25°C° 0 mm 2 mps 731 mmHg 59%
    12:00 +25°C° 0 mm 3 mps 731 mmHg 58%
    13:00 +26°C° 0 mm 3 mps 731 mmHg 58%
    14:00 +25°C° 0.1 mm 3 mps 731 mmHg 61%
    15:00 +25°C° 0.1 mm 3 mps 731 mmHg 64%
    16:00 +24°C° 0.1 mm 3 mps 731 mmHg 67%
    17:00 +23°C° 0 mm 2 mps 731 mmHg 73%
    18:00 +21°C° 0 mm 2 mps 731 mmHg 79%
    19:00 +20°C° 0 mm 1 mps 731 mmHg 86%
    20:00 +20°C° 0 mm 1 mps 731 mmHg 86%
    21:00 +19°C° 0 mm 1 mps 732 mmHg 86%
    22:00 +18°C° 0 mm 1 mps 732 mmHg 87%
    23:00 +18°C° 0 mm 1 mps 731 mmHg 86%

    Tomorrow, 8 June, Monday

    Time Temperature Precipitation Wind Pressure Humidity
    00:00 +18°C° 0 mm 1 mps 731 mmHg 85%
    01:00 +18°C° 0 mm 1 mps 731 mmHg 84%
    02:00 +16°C° 0 mm 1 mps 731 mmHg 84%
    03:00 +16°C° 0 mm 1 mps 731 mmHg 83%
    04:00 +16°C° 0 mm 1 mps 731 mmHg 83%
    05:00 +19°C° 0 mm 1 mps 731 mmHg 78%
    06:00 +18°C° 0 mm 0 mps 731 mmHg 74%
    07:00 +20°C° 0 mm 0 mps 732 mmHg 69%
    08:00 +23°C° 0 mm 1 mps 732 mmHg 65%
    09:00 +25°C° 0 mm 1 mps 732 mmHg 60%
    10:00 +26°C° 0 mm 1 mps 732 mmHg 55%
    11:00 +27°C° 0.1 mm 2 mps 732 mmHg 53%
    12:00 +28°C° 0.1 mm 2 mps 731 mmHg 52%
    13:00 +28°C° 0.1 mm 3 mps 731 mmHg 50%
    14:00 +27°C° 0.3 mm 3 mps 731 mmHg 54%
    15:00 +27°C° 0.3 mm 3 mps 731 mmHg 57%
    16:00 +26°C° 0.3 mm 2 mps 731 mmHg 61%
    17:00 +24°C° 0.2 mm 2 mps 731 mmHg 66%
    18:00 +23°C° 0.2 mm 1 mps 730 mmHg 72%
    19:00 +19°C° 0.2 mm 0 mps 730 mmHg 77%
    20:00 +21°C° 0 mm 1 mps 731 mmHg 77%
    21:00 +20°C° 0 mm 1 mps 731 mmHg 77%
    22:00 +20°C° 0 mm 1 mps 731 mmHg 77%
    23:00 +20°C° 0.1 mm 1 mps 731 mmHg 77%

    Day after tomorrow, 9 June, Tuesday

    Time Temperature Precipitation Wind Pressure Humidity
    00:00 +19°C° 0.1 mm 1 mps 731 mmHg 77%
    01:00 +19°C° 0.1 mm 1 mps 731 mmHg 78%
    02:00 +19°C° 0 mm 1 mps 731 mmHg 77%
    03:00 +19°C° 0 mm 1 mps 731 mmHg 76%
    04:00 +19°C° 0 mm 1 mps 730 mmHg 75%
    05:00 +21°C° 0 mm 1 mps 731 mmHg 72%
    06:00 +20°C° 0 mm 0 mps 731 mmHg 68%
    07:00 +22°C° 0 mm 0 mps 731 mmHg 65%
    08:00 +25°C° 0.1 mm 1 mps 731 mmHg 60%
    09:00 +26°C° 0.1 mm 1 mps 731 mmHg 55%
    10:00 +28°C° 0.1 mm 1 mps 731 mmHg 50%
    11:00 +28°C° 0.1 mm 2 mps 731 mmHg 51%
    12:00 +28°C° 0.1 mm 3 mps 731 mmHg 51%
    13:00 +28°C° 0.1 mm 4 mps 731 mmHg 51%
    14:00 +28°C° 0.3 mm 3 mps 731 mmHg 53%
    15:00 +27°C° 0.3 mm 3 mps 731 mmHg 56%
    16:00 +26°C° 0.3 mm 3 mps 731 mmHg 58%
    17:00 +24°C° 0.1 mm 2 mps 731 mmHg 63%
    18:00 +23°C° 0.1 mm 1 mps 731 mmHg 68%
    19:00 +19°C° 0.1 mm 0 mps 731 mmHg 72%
    20:00 +21°C° 0 mm 1 mps 731 mmHg 72%
    21:00 +20°C° 0 mm 1 mps 732 mmHg 71%
    22:00 +19°C° 0 mm 1 mps 732 mmHg 70%
    23:00 +19°C° 0 mm 1 mps 732 mmHg 70%

    10 June, Wednesday

    Time Temperature Precipitation Wind Pressure Humidity
    00:00 +19°C° 0 mm 1 mps 732 mmHg 71%
    01:00 +18°C° 0 mm 1 mps 732 mmHg 72%
    02:00 +18°C° 0 mm 1 mps 732 mmHg 73%
    03:00 +18°C° 0 mm 1 mps 732 mmHg 74%
    04:00 +18°C° 0 mm 1 mps 732 mmHg 75%
    05:00 +20°C° 0 mm 1 mps 732 mmHg 70%
    06:00 +22°C° 0 mm 1 mps 732 mmHg 66%
    07:00 +21°C° 0 mm 0 mps 732 mmHg 61%
    08:00 +24°C° 0.1 mm 1 mps 732 mmHg 58%
    09:00 +25°C° 0.1 mm 2 mps 732 mmHg 56%
    10:00 +27°C° 0.1 mm 2 mps 732 mmHg 53%
    11:00 +27°C° 0.3 mm 3 mps 732 mmHg 54%
    12:00 +27°C° 0.3 mm 3 mps 732 mmHg 55%
    13:00 +27°C° 0.3 mm 4 mps 731 mmHg 57%
    14:00 +26°C° 0.6 mm 3 mps 731 mmHg 59%
    15:00 +26°C° 0.6 mm 3 mps 731 mmHg 62%
    16:00 +25°C° 0.6 mm 2 mps 731 mmHg 65%
    17:00 +24°C° 0.6 mm 2 mps 731 mmHg 70%
    18:00 +22°C° 0.6 mm 1 mps 731 mmHg 75%
    19:00 +20°C° 0.6 mm 1 mps 731 mmHg 81%
    20:00 +20°C° 0.1 mm 1 mps 731 mmHg 81%
    21:00 +19°C° 0.1 mm 1 mps 731 mmHg 81%
    22:00 +18°C° 0.1 mm 1 mps 731 mmHg 81%
    23:00 +18°C° 0.1 mm 1 mps 731 mmHg 82%

    11 June, Thursday

    Time Temperature Precipitation Wind Pressure Humidity
    00:00 +18°C° 0.1 mm 1 mps 730 mmHg 82%
    01:00 +16°C° 0.1 mm 1 mps 730 mmHg 83%
    02:00 +16°C° 0 mm 1 mps 730 mmHg 83%
    03:00 +16°C° 0 mm 1 mps 730 mmHg 83%
    04:00 +15°C° 0 mm 0 mps 730 mmHg 83%
    05:00 +16°C° 0 mm 0 mps 730 mmHg 78%
    06:00 +18°C° 0 mm 0 mps 730 mmHg 73%
    07:00 +19°C° 0 mm 0 mps 730 mmHg 68%
    08:00 +22°C° 0.6 mm 1 mps 730 mmHg 66%
    09:00 +23°C° 0.6 mm 2 mps 730 mmHg 64%
    10:00 +24°C° 0.6 mm 2 mps 729 mmHg 62%
    11:00 +24°C° 2.1 mm 3 mps 729 mmHg 63%
    12:00 +22°C° 2.1 mm 3 mps 729 mmHg 65%
    13:00 +22°C° 2.1 mm 3 mps 729 mmHg 66%
    14:00 +22°C° 0.9 mm 3 mps 728 mmHg 66%
    15:00 +23°C° 0.9 mm 2 mps 728 mmHg 66%
    16:00 +23°C° 0.9 mm 2 mps 728 mmHg 66%
    17:00 +20°C° 0.1 mm 2 mps 728 mmHg 70%
    18:00 +20°C° 0.1 mm 1 mps 728 mmHg 75%
    19:00 +19°C° 0.1 mm 1 mps 728 mmHg 80%
    20:00 +18°C° 0 mm 1 mps 728 mmHg 81%
    21:00 +16°C° 0 mm 1 mps 729 mmHg 82%
    22:00 +15°C° 0 mm 0 mps 729 mmHg 83%
    23:00 +14°C° 0 mm 0 mps 729 mmHg 84%

    12 June, Friday

    Time Temperature Precipitation Wind Pressure Humidity
    00:00 +15°C° 0 mm 1 mps 728 mmHg 84%
    01:00 +15°C° 0 mm 1 mps 728 mmHg 84%
    02:00 +15°C° 0 mm 1 mps 728 mmHg 84%
    03:00 +14°C° 0 mm 1 mps 728 mmHg 85%
    04:00 +14°C° 0 mm 1 mps 728 mmHg 85%
    05:00 +16°C° 0 mm 1 mps 728 mmHg 81%
    06:00 +18°C° 0 mm 1 mps 728 mmHg 76%
    07:00 +18°C° 0 mm 0 mps 729 mmHg 72%
    08:00 +21°C° 0 mm 1 mps 729 mmHg 67%
    09:00 +22°C° 0 mm 1 mps 729 mmHg 62%
    10:00 +24°C° 0 mm 2 mps 729 mmHg 57%
    11:00 +24°C° 0.1 mm 2 mps 729 mmHg 58%
    12:00 +24°C° 0.1 mm 3 mps 729 mmHg 59%
    13:00 +25°C° 0.1 mm 4 mps 729 mmHg 60%
    14:00 +23°C° 0.3 mm 4 mps 728 mmHg 64%
    15:00 +24°C° 0.3 mm 3 mps 728 mmHg 69%
    16:00 +22°C° 0.3 mm 3 mps 728 mmHg 73%
    17:00 +21°C° 0.1 mm 3 mps 728 mmHg 78%
    18:00 +19°C° 0.1 mm 2 mps 728 mmHg 83%
    19:00 +19°C° 0.1 mm 1 mps 729 mmHg 88%
    20:00 +19°C° 0 mm 1 mps 729 mmHg 89%
    21:00 +18°C° 0 mm 1 mps 729 mmHg 91%
    22:00 +15°C° 0 mm 0 mps 730 mmHg 92%
    23:00 +15°C° 0 mm 0 mps 730 mmHg 92%
    Show more